St. Johnsbury, VT

5:40 AM EDT on April 25, 2018 (GMT -0400)
St. Johnsbury

Weather History for K1V4 - November, 2010

Change the Weather History Date:

Sunday, November 14, 2010

  Actual Average Record
Temperature  
Mean Temperature 40 °F 37 °F  
Max Temperature 54 °F 45 °F 64 °F (1989)
Min Temperature 25 °F 29 °F 3 °F (1905)
Degree Days  
Heating Degree Days 26 28  
Month to date heating degree days 360  
Since 1 July heating degree days 1147  
Cooling Degree Days 0 0  
Month to date cooling degree days 0  
Year to date cooling degree days 433  
Moisture  
Dew Point 29 °F    
Average Humidity 71    
Maximum Humidity 92    
Minimum Humidity 43    
Precipitation  
Precipitation 0.00 in 0.11 in 1.64 in (1937)
Month to date precipitation 1.61  
Year to date precipitation 34.63  
Sea Level Pressure  
Sea Level Pressure 30.12 in    
Wind  
Wind Speed - (North)    
Max Wind Speed -    
Max Gust Speed -    
T = Trace of Precipitation, MM = Missing Value Source: NWS Daily Summary

Daily Weather History Graph

Daily Weather History Graph

Search for Another Location

Airport or City:

Astronomy

Nov. 14, 2010 Rise Set
Actual Time 6:42 AM EST 4:21 PM EST
Civil Twilight 6:11 AM EST 4:53 PM EST
Nautical Twilight 5:36 AM EST 5:28 PM EST
Astronomical Twilight 5:02 AM EST 6:02 PM EST
Moon 12:53 PM EST (11/14) No Moon Set
Length of Visible Light 10h 41m
Length of Day
9h 38m
First Quarter, 60% of the Moon is Illuminated
Nov 14
First Quarter
Nov 21
Full
Nov 28
Last Quarter
Dec 5
New
Dec 13
First Quarter

Hourly Weather History & Observations

Time (EST) Temp. Dew Point Humidity Pressure Visibility Wind Dir Wind Speed Gust Speed Precip Events Conditions
12:54 AM 28.0 °F 24.1 °F 85% 30.17 in - North - - N/A   Unknown
1:54 AM 27.0 °F 24.1 °F 89% 30.16 in - North - - N/A   Unknown
2:54 AM 26.1 °F 24.1 °F 92% 30.17 in - North - - N/A   Unknown
3:54 AM 26.1 °F 24.1 °F 92% 30.16 in - North - - N/A   Unknown
4:54 AM 25.0 °F 21.9 °F 88% 30.17 in - North - - N/A   Unknown
5:54 AM 25.0 °F 23.0 °F 92% 30.18 in - North - - N/A   Unknown
6:54 AM 25.0 °F 23.0 °F 92% 30.18 in - North - - N/A   Unknown
7:54 AM 26.1 °F 24.1 °F 92% 30.20 in - North - - N/A   Unknown
8:54 AM 30.0 °F 25.0 °F 82% 30.20 in - North - - N/A   Unknown
9:54 AM 35.1 °F 27.0 °F 72% 30.19 in - North - - N/A   Unknown
10:54 AM 41.0 °F 28.0 °F 60% 30.16 in - North - - N/A   Unknown
11:54 AM 48.9 °F 30.0 °F 48% 30.12 in - North - - N/A   Unknown
12:54 PM 52.0 °F 30.0 °F 43% 30.08 in - North - - N/A   Unknown
1:54 PM 53.1 °F 30.9 °F 43% 30.06 in - North - - N/A   Unknown
2:54 PM 54.0 °F 32.0 °F 43% 30.05 in - North - - N/A   Unknown
3:54 PM 52.0 °F 32.0 °F 47% 30.06 in - North - - N/A   Unknown
4:54 PM 50.0 °F 30.9 °F 48% 30.06 in - North - - N/A   Unknown
5:54 PM 48.9 °F 32.0 °F 52% 30.06 in - North - - N/A   Unknown
6:54 PM 46.9 °F 33.1 °F 59% 30.06 in - North - - N/A   Unknown
7:54 PM 45.0 °F 33.1 °F 63% 30.06 in - North - - N/A   Unknown
8:54 PM 43.0 °F 33.1 °F 68% 30.06 in - North - - N/A   Unknown
9:54 PM 42.1 °F 35.1 °F 76% 30.07 in - North - - N/A   Unknown
10:54 PM 41.0 °F 36.0 °F 82% 30.06 in - North - - N/A   Unknown
11:54 PM 39.9 °F 36.0 °F 86% 30.06 in - North - - N/A   Unknown